Torna al catalogo

COSMOS 1579 COOLANT

LostLEO
NORAD 26645·DEBRIS·🇷🇺 Russia

Lanciato Jun 29, 1984 da Baikonur Cosmodrome

Loading…

Prossimi Passaggi (prossime 24 ore)

TLE

ObsoletoSource: Space-Track

Epoca: Feb 4, 2020, 01:37 UTC

1 26645U 84069S   20035.06740382 +.00000660 +00000-0 +36166-3 0  9997
2 26645 065.8216 214.2589 0047298 287.7843 071.8150 14.18005140986237

Traccia COSMOS 1579 COOLANT in tempo reale con AllMySat

Download on the App Store